Location: Street
(51.1247°N, 2.7429°W)
Time: 05:44:25
(UTC+01:00)

CAS-6 - Pass Details

Date: 03 April 2023
Orbit: 610 x 632 km, 97.9° (Epoch: 29 May)

Event Time Altitude Azimuth Distance (km) Brightness Sun altitude
Exits shadow 23:13:17 50° 357° (N) 801 ? -27.7°
Drops below altitude 10° 23:16:34 10° 348° (NNW) 2,014 ? -28.0°
Sets 23:18:47 0° 347° (NNW) 2,930 ? -28.2°
